Weather reports worldwide

Advertisment
Eskdalemuir, United Kingdom (3162): temperature & dewpoint: 06.11.2019 16:00:00 - 12.11.2019 16:00:00 (GMT)Eskdalemuir, United Kingdom (3162): temperature -20cm & temperature -100cm: 06.11.2019 16:00:00 - 12.11.2019 16:00:00 (GMT)Eskdalemuir, United Kingdom (3162): wind speed & gusts: 06.11.2019 16:00:00 - 12.11.2019 16:00:00 (GMT)Eskdalemuir, United Kingdom (3162): wind direction: 06.11.2019 16:00:00 - 12.11.2019 16:00:00 (GMT)Eskdalemuir, United Kingdom (3162): reduced air pressure: 06.11.2019 16:00:00 - 12.11.2019 16:00:00 (GMT)Eskdalemuir, United Kingdom (3162): visibility: 06.11.2019 16:00:00 - 12.11.2019 16:00:00 (GMT)Eskdalemuir, United Kingdom (3162): sunshine duration: 06.11.2019 16:00:00 - 12.11.2019 16:00:00 (GMT)Eskdalemuir, United Kingdom (3162): precipitation: 06.11.2019 16:00:00 - 12.11.2019 16:00:00 (GMT)
Date & Time tt [°C] td [°C] tt -20cm [°C] tt -100cm [°C] ff [km/h] ff [kn] fx [km/h] fx [kn] dd ppp [hPa] vv [km] sd [min] rr [mm]
12.11.2019 16:00:00 5,7 2,1 - - 24 13 - - NNW 996,5 50 0 -
12.11.2019 15:00:00 5,7 2,3 - - 34 18 52 28 NNW 995,7 50 0 0,0
12.11.2019 14:00:00 6,6 2,8 - - 35 19 54 29 NNW 994,6 50 0 0,0
12.11.2019 13:00:00 6,9 3,2 - - 35 19 55 30 NW 993,9 50 0 0,0
12.11.2019 12:00:00 6,6 3,2 - - 35 19 57 31 NNW 992,8 45 0 0,2
12.11.2019 11:00:00 5,9 3,1 - - 37 20 50 27 NNW 991,9 18 0 0,0
12.11.2019 10:00:00 5,3 2,9 - - 29 16 46 25 NNW 991,1 30 0 0,0
12.11.2019 09:00:00 4,3 1,6 7,2 9,2 24 13 - - NW 990,4 40 0 0,0
12.11.2019 08:00:00 3,4 1,6 - - 15 8 - - WNW 989,9 45 0 0,0
12.11.2019 07:00:00 2,6 1,2 - - 8 4 - - WNW 989,3 50 0 0,0
12.11.2019 06:00:00 2,6 0,7 - - 8 4 - - NNW 989,3 50 0 0,0
12.11.2019 05:00:00 2,1 1,3 - - 13 7 - - WNW 988,8 50 0 0,0
12.11.2019 04:00:00 2,9 2,3 - - 9 5 - - SW 988,7 50 0 0,0
12.11.2019 03:00:00 2,9 2,6 - - 4 2 - - ESE 989,1 35 0 0,2
12.11.2019 02:00:00 2,6 2,3 - - 5 3 - - S 989,4 12 0 0,2
12.11.2019 01:00:00 3,0 1,8 - - 18 10 54 29 W 989,6 8 0 2,4
12.11.2019 00:00:00 3,7 2,1 - - 24 13 - - W 989,8 18 - 1,2
11.11.2019 23:00:00 3,8 2,1 - - 21 11 - - W 990,6 12 0 0,8
11.11.2019 22:00:00 4,0 2,6 - - 13 7 - - SW 991,0 22 0 0,4
11.11.2019 21:00:00 4,2 2,4 - - 22 12 - - W 991,5 26 0 0,4
11.11.2019 20:00:00 4,0 2,8 - - 18 10 - - W 991,9 29 0 1,2
11.11.2019 19:00:00 4,7 2,6 - - 16 9 - - W 991,9 50 0 0,4
11.11.2019 18:00:00 4,5 2,8 - - 24 13 - - W 991,8 45 0 0,2
11.11.2019 17:00:00 4,0 2,4 - - 28 15 54 29 W 991,8 30 0 0,2
11.11.2019 16:00:00 4,5 3,4 - - 22 12 - - W 992,0 20 0 0,6
11.11.2019 15:00:00 4,8 3,3 - - 24 13 50 27 W 991,7 15 0 0,6
11.11.2019 14:00:00 5,4 2,8 - - 24 13 52 28 W 991,5 15 0 0,0
11.11.2019 13:00:00 5,4 3,7 - - 28 15 55 30 W 991,1 30 6 0,4
11.11.2019 12:00:00 4,6 3,3 - - 26 14 50 27 WSW 991,3 12 0 2,0
11.11.2019 11:00:00 4,1 3,2 - - 24 13 - - SSW 991,7 7 6 1,0
11.11.2019 10:00:00 3,1 2,4 - - 26 14 - - SSW 992,9 30 0 0,2
11.11.2019 09:00:00 3,4 2,2 7,2 9,5 21 11 - - SW 993,8 18 0 0,2
11.11.2019 08:00:00 3,7 3,1 - - 13 7 - - S 994,5 40 0 0,6
11.11.2019 07:00:00 3,5 3,3 - - 5 3 - - SE 994,4 23 0 0,2
11.11.2019 06:00:00 3,6 3,1 - - 11 6 - - SW 994,5 27 0 0,4
11.11.2019 05:00:00 2,3 2,1 - - 5 3 - - SSE 994,7 7 0 0,2
11.11.2019 04:00:00 1,6 1,4 - - 2 1 - - WNW 995,2 6 0 0,0
11.11.2019 03:00:00 2,1 1,7 - - 8 4 - - S 995,3 17 0 0,8
11.11.2019 02:00:00 1,3 1,0 - - 13 7 - - SSE 996,8 7 0 1,6
11.11.2019 01:00:00 1,6 1,2 - - 21 11 - - SSE 998,9 4,9 0 1,6
11.11.2019 00:00:00 2,1 1,6 - - 16 9 - - SSE 1000,8 6 - 1,4
10.11.2019 23:00:00 2,4 1,7 - - 21 11 - - SSE 1002,8 6 0 1,4
10.11.2019 22:00:00 2,4 1,8 - - 16 9 - - SSE 1004,7 7 0 1,2
10.11.2019 21:00:00 1,8 0,6 - - 4 2 - - SSE 1006,9 35 0 0,0
10.11.2019 20:00:00 1,4 0,0 - - 2 1 - - SW 1009,1 45 0 0,0
10.11.2019 19:00:00 0,9 0,1 - - 2 1 - - SSW 1010,5 20 0 0,0
10.11.2019 18:00:00 0,7 -0,5 - - 4 2 - - WNW 1011,5 50 0 0,0
10.11.2019 17:00:00 1,5 0,3 - - 4 2 - - NW 1012,5 50 0 0,0
10.11.2019 16:00:00 2,8 0,4 - - 4 2 - - WSW 1013,2 50 0 0,0
10.11.2019 15:00:00 4,4 0,6 - - 8 4 - - ENE 1014,2 50 36 0,0
10.11.2019 14:00:00 5,4 0,6 - - 11 6 - - ENE 1015,3 35 54 0,0
10.11.2019 13:00:00 5,5 0,2 - - 11 6 - - ENE 1016,0 45 60 0,0
10.11.2019 12:00:00 5,7 0,5 - - 13 7 - - NNE 1016,5 29 60 0,0
10.11.2019 11:00:00 5,3 0,2 - - 4 2 - - SE 1016,7 35 60 0,0
10.11.2019 10:00:00 3,4 0,1 - - 2 1 - - ENE 1017,8 27 60 0,0
10.11.2019 09:00:00 -1,3 -2,2 7,7 9,7 2 1 - - S 1018,6 40 42 0,0
10.11.2019 08:00:00 -2,1 -3,1 - - 4 2 - - S 1017,6 40 0 0,0
10.11.2019 07:00:00 -1,0 -2,3 - - 4 2 - - ENE 1016,9 50 0 0,0
10.11.2019 06:00:00 0,5 -1,7 - - 9 5 - - N 1015,8 50 0 0,0
10.11.2019 05:00:00 1,3 -1,3 - - 11 6 - - NNW 1015,6 50 0 0,0
10.11.2019 04:00:00 1,6 -1,6 - - 11 6 - - N 1014,6 50 0 0,0
10.11.2019 03:00:00 1,0 -1,4 - - 13 7 - - NNW 1014,1 50 0 0,0
10.11.2019 02:00:00 1,3 -0,7 - - 11 6 - - N 1013,6 50 0 0,0
10.11.2019 01:00:00 2,1 -0,3 - - 13 7 - - N 1013,2 45 0 0,0
10.11.2019 00:00:00 1,3 -0,9 - - 11 6 - - NNW 1013,0 50 - 0,0
09.11.2019 23:00:00 0,5 -1,2 - - 2 1 - - WNW 1012,1 50 0 0,0
09.11.2019 22:00:00 -0,1 -1,6 - - 4 2 - - NW 1011,4 50 0 0,0
09.11.2019 21:00:00 1,1 -1,0 - - 5 3 - - N 1010,4 50 0 0,0
09.11.2019 20:00:00 1,5 -0,7 - - 11 6 - - N 1009,6 50 0 0,0
09.11.2019 19:00:00 0,3 -2,0 - - 9 5 - - N 1009,3 50 0 0,0
09.11.2019 18:00:00 0,9 -1,6 - - 9 5 - - N 1008,5 50 0 0,0
09.11.2019 17:00:00 1,8 -1,0 - - 9 5 - - NNE 1007,7 50 0 0,0
09.11.2019 16:00:00 1,7 -0,2 - - 9 5 - - NE 1007,1 50 0 0,0
09.11.2019 15:00:00 2,1 0,1 - - 9 5 - - NE 1006,3 50 0 0,0
09.11.2019 14:00:00 3,1 -0,4 - - 11 6 - - NE 1006,1 45 0 0,0
09.11.2019 13:00:00 3,3 -0,2 - - 11 6 - - NE 1006,1 45 0 0,0
09.11.2019 12:00:00 2,8 -0,4 - - 13 7 - - ENE 1006,2 40 0 0,0
09.11.2019 11:00:00 2,4 0,1 - - 15 8 - - ENE 1006,5 40 0 0,0
09.11.2019 10:00:00 2,3 -0,1 - - 13 7 - - ENE 1006,9 35 0 0,0
09.11.2019 09:00:00 0,9 -0,1 8,2 9,7 5 3 - - NE 1007,4 45 0 0,0
09.11.2019 08:00:00 0,1 -0,4 - - 4 2 - - NE 1007,5 40 0 0,0
09.11.2019 07:00:00 -0,7 -1,1 - - 4 2 - - NNW 1008,2 35 0 0,0
09.11.2019 06:00:00 -1,0 -1,5 - - 5 3 - - NNW 1008,6 35 0 0,0
09.11.2019 05:00:00 -1,4 -1,8 - - 4 2 - - NW 1009,2 40 0 0,0
09.11.2019 04:00:00 -1,1 -1,5 - - 5 3 - - NNW 1009,6 35 0 0,0
09.11.2019 03:00:00 -1,4 -1,8 - - 4 2 - - NNW 1010,5 35 0 0,0
09.11.2019 02:00:00 -1,8 -2,3 - - 4 2 - - N 1011,5 40 0 0,0
09.11.2019 01:00:00 -2,5 -3,0 - - 5 3 - - NNW 1012,8 45 0 0,0
09.11.2019 00:00:00 -2,4 -2,9 - - 5 3 - - NNW 1013,6 40 - 0,0
08.11.2019 23:00:00 -1,9 -2,4 - - 2 1 - - NW 1013,5 35 0 0,0
08.11.2019 22:00:00 -1,9 -2,3 - - 4 2 - - NNW 1013,9 50 0 0,0
08.11.2019 21:00:00 -2,3 -2,8 - - 2 1 - - WNW 1014,4 19 0 0,0
08.11.2019 20:00:00 -1,9 -2,5 - - 2 1 - - WNW 1014,2 40 0 0,0
08.11.2019 19:00:00 -1,3 -2,3 - - 4 2 - - NNW 1014,3 30 0 0,0
08.11.2019 18:00:00 0,8 -0,1 - - 2 1 - - ENE 1014,3 50 0 0,0
08.11.2019 17:00:00 2,5 0,8 - - 2 1 - - N 1013,7 50 0 0,0
08.11.2019 16:00:00 3,1 1,0 - - 8 4 - - N 1013,3 45 6 0,0
08.11.2019 15:00:00 4,4 0,8 - - 13 7 - - N 1012,8 40 36 0,0
08.11.2019 14:00:00 4,9 0,5 - - 18 10 - - N 1012,5 45 60 0,0
08.11.2019 13:00:00 4,6 0,4 - - 15 8 - - N 1012,5 45 48 0,0
08.11.2019 12:00:00 4,7 0,0 - - 16 9 - - N 1012,4 45 54 0,0
08.11.2019 11:00:00 4,1 -0,2 - - 21 11 - - NNW 1012,5 40 60 0,0
08.11.2019 10:00:00 3,0 -0,5 - - 15 8 - - NNW 1012,2 45 60 0,0
08.11.2019 09:00:00 1,8 -1,0 8,7 9,9 18 10 - - NNW 1011,9 45 54 0,0
08.11.2019 08:00:00 0,5 -1,7 - - 15 8 - - NNW 1011,9 50 0 0,0
08.11.2019 07:00:00 0,7 -1,7 - - 9 5 - - NNW 1011,0 50 0 0,0
08.11.2019 06:00:00 1,5 -0,9 - - 18 10 - - N 1010,5 50 0 0,0
08.11.2019 05:00:00 2,7 -0,1 - - 24 13 - - N 1010,0 45 0 0,0
08.11.2019 04:00:00 2,8 0,4 - - 24 13 - - N 1009,0 45 0 0,0
08.11.2019 03:00:00 2,9 -0,3 - - 24 13 - - N 1008,2 50 0 0,0
08.11.2019 02:00:00 3,3 0,7 - - 28 15 - - N 1007,5 35 0 0,0
08.11.2019 01:00:00 3,1 0,8 - - 24 13 - - NNE 1007,0 50 0 0,0
08.11.2019 00:00:00 3,2 1,2 - - 26 14 - - NNE 1006,4 50 - 0,0
07.11.2019 23:00:00 3,8 1,2 - - 26 14 - - N 1005,8 50 0 0,0
07.11.2019 22:00:00 3,7 1,5 - - 26 14 50 27 N 1005,1 40 0 0,0
07.11.2019 21:00:00 3,8 1,5 - - 29 16 - - NNE 1004,3 45 0 -
07.11.2019 20:00:00 4,0 2,5 - - 29 16 48 26 NNE 1003,8 40 0 0,2
07.11.2019 19:00:00 4,7 3,1 - - 28 15 50 27 NNE 1003,1 23 0 0,0
07.11.2019 18:00:00 4,2 3,3 - - 31 17 50 27 NNE 1002,1 17 0 0,6
07.11.2019 17:00:00 4,7 3,4 - - 34 18 55 30 NNE 1000,8 50 0 0,6
07.11.2019 16:00:00 5,5 3,7 - - 34 18 57 31 NNE 999,7 18 0 0,0
07.11.2019 15:00:00 5,6 4,2 - - 26 14 46 25 NNE 998,9 30 0 0,0
07.11.2019 14:00:00 6,1 4,4 - - 22 12 - - NNE 998,1 40 0 0,2
07.11.2019 13:00:00 6,0 4,0 - - 29 16 46 25 NE 997,8 18 0 0,0
07.11.2019 12:00:00 6,1 4,4 - - 28 15 - - NE 997,3 40 0 0,0
07.11.2019 11:00:00 5,7 4,8 - - 21 11 - - NE 996,9 35 0 0,2
07.11.2019 10:00:00 5,0 4,3 - - 18 10 - - NE 996,5 15 0 0,0
07.11.2019 09:00:00 4,5 3,7 8,7 10,0 16 9 - - NE 996,0 25 0 0,4
07.11.2019 08:00:00 4,3 3,8 - - 11 6 - - NE 995,7 9 0 0,0
07.11.2019 07:00:00 4,2 3,7 - - 13 7 - - NE 995,1 12 0 0,2
07.11.2019 06:00:00 4,0 3,5 - - 11 6 - - NNE 994,8 13 0 0,0
07.11.2019 05:00:00 3,7 3,3 - - 18 10 - - NE 994,8 15 0 0,0
07.11.2019 04:00:00 3,4 3,1 - - 15 8 - - NE 995,0 6 0 0,0
07.11.2019 03:00:00 3,2 2,9 - - 13 7 - - NE 995,4 7 0 0,0
07.11.2019 02:00:00 3,0 2,6 - - 11 6 - - NE 995,7 13 0 0,0
07.11.2019 01:00:00 3,0 2,6 - - 11 6 - - ENE 996,1 12 0 0,0
07.11.2019 00:00:00 2,8 2,5 - - 5 3 - - NE 996,6 9 - 0,0
06.11.2019 23:00:00 3,0 2,4 - - 4 2 - - NNW 996,9 35 0 0,0
06.11.2019 22:00:00 3,0 2,6 - - 5 3 - - ENE 997,4 35 0 0,0
06.11.2019 21:00:00 3,1 2,6 - - 5 3 - - ENE 997,8 30 0 0,0
06.11.2019 20:00:00 3,1 2,6 - - 8 4 - - ENE 998,2 40 0 0,2
06.11.2019 19:00:00 3,4 2,9 - - 8 4 - - ENE 998,6 35 0 0,4
06.11.2019 18:00:00 3,3 2,9 - - 8 4 - - NE 999,1 35 0 0,4
06.11.2019 17:00:00 3,4 2,6 - - 5 3 - - E 999,7 11 0 2,0
06.11.2019 16:00:00 4,2 2,8 - - 5 3 - - E 999,9 11 0 0,2

tt = temperature
td = dewpoint
tt -20cm = temperature -20cm
tt -100cm = temperature -100cm
ff = wind speed
fx = gusts
dd = wind direction
ppp = reduced air pressure
vv = visibility
sd = sunshine duration
rr = precipitation

Next stations